Regional Weather Roundup
Issued by NWS Upton, NY

Current Version | Previous Version | Text Only | Print | Product List | Glossary Off
Versions: 1 2 3 4 5 6 7 8 9 10 11 12 13 14 15 16 17 18 19 20 21 22 23 24 25 26 27 28 29 30 31 32 33 34 35 36 37 38 39 40 41 42 43 44 45 46 47 48 49 50
109 ASUS41 KOKX 131204 RWROKX REGIONAL WEATHER ROUNDUP NATIONAL WEATHER SERVICE NEW YORK NY 700 AM EST SAT FEB 13 2016 NOTE: "FAIR" INDICATES FEW OR NO CLOUDS BELOW 12,000 FEET WITH NO SIGNIFICANT WEATHER AND/OR OBSTRUCTIONS TO VISIBILITY. NYZ071-072-176-178-NJZ106-104-131300- NEW YORK CITY METRO AREA CITY SKY/WX TMP DP RH WIND PRES REMARKS CENTRAL PARK CLEAR 21 7 54 NW9G23 29.94R WCI 11 LAGUARDIA APRT PTCLDY 23 11 60 NW18G28 29.92R WCI 9 KENNEDY INTL PTCLDY 22 10 60 NW20G26 29.93R WCI 7 NEWARK/LIBERTY PTCLDY 21 11 65 NW15G24 29.94R WCI 8 BRNX BOT. GARD N/A 21 10 63 NW8 29.94R WCI 12 TETERBORO CLEAR 21 6 52 NW15 29.93R WCI 8 $$ NYZ177-179-078>081-131300- LONG ISLAND NEW YORK CITY SKY/WX TMP DP RH WIND PRES REMARKS FARMINGDALE CLEAR 21 11 65 NW12 29.90R WCI 9 ISLIP PTCLDY 20 10 65 NW10 29.88R WCI 9 SHIRLEY MOCLDY 21 11 65 NW13G20 29.89R WCI 9 RIVERHEAD N/A 25 10 54 W8 29.85S WCI 16 WESTHAMPTON CLOUDY 17 11 77 W6 29.89R WCI 9 EAST HAMPTON CLOUDY 21 12 66 NW9G17 29.85S WCI 11 MONTAUK POINT N/A 22 15 75 NW13G22 29.86R WCI 10 $$ NYZ052-065-067-131300- HUDSON VALLEY CITY SKY/WX TMP DP RH WIND PRES REMARKS WHITE PLAINS PTCLDY 19 9 65 W20G26 29.87R WCI 3 NEWBURGH NOT AVBL MONTGOMERY CLEAR 18 6 59 NW9 29.91R WCI 7 POUGHKEEPSIE CLOUDY 20 8 60 NW13G21 29.90R WCI 7 ALBANY PTCLDY 15 4 61 W13 29.91R WCI 1 $$ NJZ001-105-106-008-010-013-015-019>022-104-131300- NEW JERSEY CITY SKY/WX TMP DP RH WIND PRES REMARKS NEWARK/LIBERTY PTCLDY 21 11 65 NW15G24 29.94R WCI 8 TETERBORO CLEAR 21 6 52 NW15 29.93R WCI 8 CALDWELL CLEAR 20 3 48 NW14G23 29.95R WCI 7 MORRISTOWN CLEAR 19 9 63 NW10G18 29.94R WCI 8 SOMERVILLE CLEAR 20 11 68 W8G17 29.96R WCI 10 SUSSEX CLEAR 17 2 51 NW9G21 29.93R WCI 6 ANDOVER N/A 17 3 54 VRB5 29.94R WCI 10 TRENTON PTCLDY 20 10 65 NW10 29.98R WCI 9 MILLVILLE CLEAR 21 9 59 NW13G24 30.04R WCI 9 ATLANTIC CITY CLEAR 21 10 62 W16G23 30.01R WCI 7 WRIGHTSTOWN CLEAR 20 15 80 NW13 29.96R WCI 7 TOMS RIVER CLEAR 19 10 68 W14G20 29.97R WCI 6 BELMAR CLEAR 19 7 58 W12G20 29.94R WCI 7 $$ PAZ047>061-062-071-131300- EASTERN PENNSYLVANIA CITY SKY/WX TMP DP RH WIND PRES REMARKS PHILADELPHIA PTCLDY 22 6 50 NW16 30.05R WCI 8 ALLENTOWN PTCLDY 18 5 57 NW13 30.00R WCI 5 SCRANTON CLEAR 13 0 56 NW14G22 29.94R WCI -2 $$ CTZ002-004>006-009-010-012-RIZ004-006-007-MAZ004-011-015-131300- SOUTHERN NEW ENGLAND IN CT CITY SKY/WX TMP DP RH WIND PRES REMARKS BRADLEY INTL PTCLDY 11 6 81 CALM 29.85R HARTFORD PTCLDY 18 8 65 CALM 29.88R DANBURY CLEAR 13 6 74 W5 29.87R WCI 5 WTRBRY/OXFORD PTCLDY 14 1 57 N5 29.83R WCI 6 BRIDGEPORT CLEAR 19 11 70 W9 29.88R WCI 8 MERIDEN CLEAR 11 6 81 CALM 29.87R NEW HAVEN CLOUDY 19 11 70 NW7 29.88R WCI 10 CHESTER FAIR 18 12 79 NW5 29.84R WCI 11 GROTON CLOUDY 18 14 84 NW7 29.86R WCI 9 WILLIMANTIC PTCLDY 13 8 81 CALM 29.84R IN RI CITY SKY/WX TMP DP RH WIND PRES REMARKS PROVIDENCE CLOUDY 19 8 62 W8 29.83R WCI 9 BLOCK ISLAND CLOUDY 19 16 86 NW13G21 29.82R WCI 7 WESTERLY LGT SNOW 18 14 84 NW3 29.86R FOG IN MA CITY SKY/WX TMP DP RH WIND PRES REMARKS BOSTON MOCLDY 19 8 62 W14 29.81S WCI 6 WORCESTER MOCLDY 11 5 77 W12 29.74R WCI -3 WESTFIELD PTCLDY 6 2 83 W3 29.84R PROVINCETOWN CLOUDY 22 15 75 NW12 29.78F WCI 10 NANTUCKET CLOUDY 24 12 60 NW12 29.78F WCI 13 $$ ANZ330-335-338-340-345-350-353-355-131300- COASTAL MARINE OBSERVATIONS STATION/POSITION TIME SKY/WX TEMP WIND PRES VSBY WAVE AIR SEA DIR/SP/G HT/PER (UTC) (F) (DEG/KT/KT) (MB) (MI) (FT/S) NY HARB ENTRANCE 1050 25 43 280/ 21/ 27 1012.1 3/ 4 4S FIRE IS NOT AVBL 20S FIRE ISLAND 1050 27 41 300/ 19/ 25 1011.6 5/ 5 GREAT SOUTH BAY NOT AVBL 23SW MTP 1150 26 44 300/ 19/ 23 1010.3 5/ 6 HUDSON CANYON 1050 29 48 1011.4 8/ 7 KINGS POINT 1100 22 36 340/ 13/ 17 1012.1 EXECUTION ROCKS NOT AVBL CENTRAL LI SOUND 1100 24 290/ 17/ 21 N/A 3/ 4 EASTERN LI SOUND 1100 23 41 300/ 17/ 21 N/A ROBBINS REEF 1100 21 290/ 17/ 21 1012.1 $$ >>>>>>>>>>>>>>>>>>>>>>>>>>>> KEY <<<<<<<<<<<<<<<<<<<<<<<<<<< > < > SKY/WX - SKY CONDITION/PRESENT WEATHER < > TMP - TEMPERATURE IN FAHRENHEIT < > DP - DEWPOINT IN FAHRENHEIT < > RH - RELATIVE HUMIDITY IN PERCENT < > WIND - DIRECTION AND SPEED IN MPH < > PRES - MEAN SEA LEVEL PRESSURE IN INCHES OF HG < > WCI - WIND CHILL INDEX < > VSB - VISIBILITY IN MILES < > HX - HEAT INDEX < > TC - TEMPERATURE IN CELSIUS < > VRB - VARIABLE WIND DIRECTION < > < >>>>>>>>>>>>>>>>>>>>>>>>>>>> KEY <<<<<<<<<<<<<<<<<<<<<<<<<<<

USA.gov is the U.S. government's official web portal to all federal, state and local government web resources and services.